Terug naar catalogus

STARLINK-32711

ActiefCommunicatieVLEO
NORAD 62435·PAYLOAD·🇺🇸 United States

Gelanceerd Dec 29, 2024 vanaf Vandenberg Space Force Base

Loading…

Volgende Passages (komende 24 uur)

TLE

VersSource: CelesTrak SupGP

Epoch: Sep 14, 2026, 20:46 UTC

1 62435C 24251D   26257.86576389  .00006395  00000+0  18886-3 0  2571
2 62435  53.1578 175.8286 0001280  92.6110 245.1345 15.34401160    18

Volg STARLINK-32711 in realtime met AllMySat

Download on the App Store